Time,TemperatureF,DewpointF,PressureIn,WindDirection,WindDirectionDegrees,WindSpeedMPH,WindSpeedGustMPH,Humidity,HourlyPrecipIn,Conditions,Clouds,dailyrainin,SoftwareType,DateUTC
2013-07-19 00:13:00,65.3,60.0,30.18,ESE,109,0.0,2.0,83,0.00,,,0.00,weatherlink.com 1.10,2013-07-18 23:13:00,
2013-07-19 00:28:00,65.2,60.0,30.18,ESE,111,0.0,2.0,84,0.00,,,0.00,weatherlink.com 1.10,2013-07-18 23:28:00,
2013-07-19 00:58:00,64.7,61.0,30.18,ESE,118,1.0,1.0,86,0.00,,,0.00,weatherlink.com 1.10,2013-07-18 23:58:00,
2013-07-19 01:13:00,64.5,61.0,30.18,ESE,113,0.0,2.0,87,0.00,,,0.00,weatherlink.com 1.10,2013-07-19 00:13:00,
2013-07-19 01:28:00,64.4,61.0,30.18,SE,131,0.0,2.0,88,0.00,,,0.00,weatherlink.com 1.10,2013-07-19 00:28:00,
2013-07-19 01:43:00,64.2,61.0,30.17,East,100,0.0,1.0,89,0.00,,,0.00,weatherlink.com 1.10,2013-07-19 00:43:00,
2013-07-19 01:58:00,64.0,61.0,30.17,SE,141,0.0,1.0,89,0.00,,,0.00,weatherlink.com 1.10,2013-07-19 00:58:00,
2013-07-19 02:14:00,63.8,61.0,30.17,ESE,118,1.0,2.0,90,0.00,,,0.00,weatherlink.com 1.10,2013-07-19 01:14:00,
2013-07-19 02:29:00,63.8,61.0,30.17,East,85,0.0,2.0,90,0.00,,,0.00,weatherlink.com 1.10,2013-07-19 01:29:00,
2013-07-19 02:44:00,63.7,61.0,30.17,East,99,0.0,1.0,90,0.00,,,0.00,weatherlink.com 1.10,2013-07-19 01:44:00,
2013-07-19 03:00:00,63.4,61.0,30.17,ESE,121,0.0,1.0,91,0.00,,,0.00,weatherlink.com 1.10,2013-07-19 02:00:00,
2013-07-19 03:14:00,63.2,61.0,30.16,SE,124,0.0,1.0,91,0.00,,,0.00,weatherlink.com 1.10,2013-07-19 02:14:00,
2013-07-19 03:29:00,62.9,60.0,30.16,South,176,0.0,1.0,91,0.00,,,0.00,weatherlink.com 1.10,2013-07-19 02:29:00,
2013-07-19 03:44:00,62.8,60.0,30.17,SE,134,0.0,1.0,91,0.00,,,0.00,weatherlink.com 1.10,2013-07-19 02:44:00,
2013-07-19 03:59:00,62.6,60.0,30.16,SE,135,0.0,0.0,91,0.00,,,0.00,weatherlink.com 1.10,2013-07-19 02:59:00,
2013-07-19 04:14:00,62.5,60.0,30.16,SE,135,0.0,0.0,92,0.00,,,0.00,weatherlink.com 1.10,2013-07-19 03:14:00,
2013-07-19 04:29:00,62.2,60.0,30.16,SE,136,0.0,0.0,92,0.00,,,0.00,weatherlink.com 1.10,2013-07-19 03:29:00,
2013-07-19 04:44:00,62.6,61.0,30.16,SE,132,0.0,0.0,93,0.00,,,0.00,weatherlink.com 1.10,2013-07-19 03:44:00,
2013-07-19 04:59:00,62.8,61.0,30.16,SE,132,0.0,0.0,92,0.00,,,0.00,weatherlink.com 1.10,2013-07-19 03:59:00,
2013-07-19 05:14:00,63.1,61.0,30.15,SE,145,0.0,2.0,92,0.00,,,0.00,weatherlink.com 1.10,2013-07-19 04:14:00,
2013-07-19 05:29:00,63.3,61.0,30.15,SE,136,0.0,1.0,92,0.00,,,0.00,weatherlink.com 1.10,2013-07-19 04:29:00,
2013-07-19 05:44:00,63.3,61.0,30.15,ESE,109,1.0,3.0,92,0.00,,,0.00,weatherlink.com 1.10,2013-07-19 04:44:00,
2013-07-19 05:59:00,63.1,61.0,30.15,East,82,1.0,2.0,92,0.00,,,0.00,weatherlink.com 1.10,2013-07-19 04:59:00,
2013-07-19 06:14:00,62.9,61.0,30.15,ESE,122,0.0,2.0,92,0.00,,,0.00,weatherlink.com 1.10,2013-07-19 05:14:00,
2013-07-19 06:29:00,62.9,61.0,30.15,ESE,105,1.0,2.0,93,0.00,,,0.00,weatherlink.com 1.10,2013-07-19 05:29:00,
2013-07-19 06:44:00,63.2,61.0,30.15,ESE,112,1.0,2.0,93,0.00,,,0.00,weatherlink.com 1.10,2013-07-19 05:44:00,
2013-07-19 06:59:00,63.6,62.0,30.15,ESE,105,2.0,3.0,93,0.00,,,0.00,weatherlink.com 1.10,2013-07-19 05:59:00,
2013-07-19 07:14:00,63.8,62.0,30.15,SE,129,0.0,3.0,93,0.00,,,0.00,weatherlink.com 1.10,2013-07-19 06:14:00,
2013-07-19 07:29:00,64.1,62.0,30.16,ESE,117,4.0,4.0,92,0.00,,,0.00,weatherlink.com 1.10,2013-07-19 06:29:00,
2013-07-19 07:45:00,64.7,62.0,30.15,ESE,106,3.0,5.0,91,0.00,,,0.00,weatherlink.com 1.10,2013-07-19 06:45:00,
2013-07-19 07:59:00,65.3,62.0,30.15,ENE,70,4.0,4.0,90,0.00,,,0.00,weatherlink.com 1.10,2013-07-19 06:59:00,
2013-07-19 08:14:00,65.6,62.0,30.15,ENE,77,1.0,6.0,89,0.00,,,0.00,weatherlink.com 1.10,2013-07-19 07:14:00,
2013-07-19 08:29:00,66.1,62.0,30.15,ESE,108,4.0,6.0,87,0.00,,,0.00,weatherlink.com 1.10,2013-07-19 07:29:00,
2013-07-19 08:44:00,66.6,62.0,30.15,East,79,4.0,7.0,86,0.00,,,0.00,weatherlink.com 1.10,2013-07-19 07:44:00,
2013-07-19 08:59:00,67.4,62.0,30.15,ESE,108,4.0,6.0,84,0.00,,,0.00,weatherlink.com 1.10,2013-07-19 07:59:00,
2013-07-19 09:14:00,68.0,62.0,30.15,East,89,3.0,6.0,82,0.00,,,0.00,weatherlink.com 1.10,2013-07-19 08:14:00,
2013-07-19 09:29:00,67.9,62.0,30.15,ESE,108,6.0,7.0,81,0.00,,,0.00,weatherlink.com 1.10,2013-07-19 08:29:00,
2013-07-19 09:44:00,68.5,63.0,30.15,ESE,120,5.0,5.0,81,0.00,,,0.00,weatherlink.com 1.10,2013-07-19 08:44:00,
2013-07-19 09:59:00,68.2,62.0,30.15,ESE,117,4.0,8.0,80,0.00,,,0.00,weatherlink.com 1.10,2013-07-19 08:59:00,
2013-07-19 10:15:00,68.3,62.0,30.15,ESE,108,4.0,6.0,80,0.00,,,0.00,weatherlink.com 1.10,2013-07-19 09:15:00,
2013-07-19 10:30:00,69.1,62.0,30.14,ENE,68,4.0,8.0,78,0.00,,,0.00,weatherlink.com 1.10,2013-07-19 09:30:00,
2013-07-19 10:45:00,69.7,63.0,30.14,ESE,118,5.0,9.0,78,0.00,,,0.00,weatherlink.com 1.10,2013-07-19 09:45:00,
2013-07-19 11:00:00,70.3,63.0,30.14,ESE,114,3.0,8.0,77,0.00,,,0.00,weatherlink.com 1.10,2013-07-19 10:00:00,
2013-07-19 11:15:00,70.3,63.0,30.14,NE,37,2.0,8.0,78,0.00,,,0.00,weatherlink.com 1.10,2013-07-19 10:15:00,
2013-07-19 11:30:00,71.2,63.0,30.14,ESE,114,5.0,7.0,75,0.00,,,0.00,weatherlink.com 1.10,2013-07-19 10:30:00,
2013-07-19 11:45:00,71.2,63.0,30.14,ENE,77,5.0,8.0,76,0.00,,,0.00,weatherlink.com 1.10,2013-07-19 10:45:00,
2013-07-19 12:00:00,71.9,64.0,30.14,ESE,106,4.0,9.0,76,0.00,,,0.00,weatherlink.com 1.10,2013-07-19 11:00:00,
2013-07-19 12:15:00,72.7,63.0,30.13,SE,130,6.0,8.0,72,0.00,,,0.00,weatherlink.com 1.10,2013-07-19 11:15:00,
2013-07-19 12:30:00,73.1,64.0,30.13,East,93,7.0,8.0,72,0.00,,,0.00,weatherlink.com 1.10,2013-07-19 11:30:00,
2013-07-19 12:45:00,73.3,64.0,30.13,ENE,57,4.0,8.0,72,0.00,,,0.00,weatherlink.com 1.10,2013-07-19 11:45:00,
2013-07-19 13:00:00,73.2,63.0,30.13,East,79,7.0,8.0,70,0.00,,,0.00,weatherlink.com 1.10,2013-07-19 12:00:00,
2013-07-19 13:15:00,73.9,64.0,30.13,East,101,6.0,9.0,70,0.00,,,0.00,weatherlink.com 1.10,2013-07-19 12:15:00,
2013-07-19 13:30:00,74.0,63.0,30.13,ESE,113,4.0,9.0,69,0.00,,,0.00,weatherlink.com 1.10,2013-07-19 12:30:00,
2013-07-19 13:45:00,74.2,64.0,30.13,ESE,106,6.0,8.0,70,0.00,,,0.00,weatherlink.com 1.10,2013-07-19 12:45:00,
2013-07-19 14:00:00,74.1,64.0,30.13,ESE,120,4.0,9.0,70,0.00,,,0.00,weatherlink.com 1.10,2013-07-19 13:00:00,
2013-07-19 14:15:00,74.4,64.0,30.13,East,94,7.0,10.0,70,0.00,,,0.00,weatherlink.com 1.10,2013-07-19 13:15:00,
2013-07-19 14:30:00,73.7,64.0,30.13,SE,128,3.0,9.0,72,0.00,,,0.00,weatherlink.com 1.10,2013-07-19 13:30:00,
2013-07-19 14:45:00,72.9,64.0,30.13,ENE,64,4.0,10.0,73,0.00,,,0.00,weatherlink.com 1.10,2013-07-19 13:45:00,
2013-07-19 15:00:00,73.6,64.0,30.13,East,79,6.0,8.0,71,0.00,,,0.00,weatherlink.com 1.10,2013-07-19 14:00:00,
2013-07-19 15:15:00,74.1,64.0,30.12,ESE,105,6.0,7.0,70,0.00,,,0.00,weatherlink.com 1.10,2013-07-19 14:15:00,
2013-07-19 15:30:00,74.9,63.0,30.12,East,86,6.0,7.0,67,0.00,,,0.00,weatherlink.com 1.10,2013-07-19 14:30:00,
2013-07-19 15:45:00,74.9,63.0,30.12,East,98,6.0,7.0,66,0.00,,,0.00,weatherlink.com 1.10,2013-07-19 14:45:00,
2013-07-19 16:00:00,76.0,62.0,30.11,ESE,109,3.0,8.0,63,0.00,,,0.00,weatherlink.com 1.10,2013-07-19 15:00:00,
2013-07-19 16:15:00,76.1,62.0,30.11,ENE,77,7.0,8.0,62,0.00,,,0.00,weatherlink.com 1.10,2013-07-19 15:15:00,
2013-07-19 16:30:00,76.9,63.0,30.11,East,84,4.0,7.0,62,0.00,,,0.00,weatherlink.com 1.10,2013-07-19 15:30:00,
2013-07-19 16:45:00,76.8,62.0,30.11,ENE,77,3.0,7.0,61,0.00,,,0.00,weatherlink.com 1.10,2013-07-19 15:45:00,
2013-07-19 17:00:00,75.9,60.0,30.10,SE,139,5.0,10.0,58,0.00,,,0.00,weatherlink.com 1.10,2013-07-19 16:00:00,
2013-07-19 17:15:00,75.7,60.0,30.10,ESE,103,4.0,7.0,59,0.00,,,0.00,weatherlink.com 1.10,2013-07-19 16:15:00,
2013-07-19 17:30:00,76.4,60.0,30.10,SE,145,3.0,7.0,58,0.00,,,0.00,weatherlink.com 1.10,2013-07-19 16:30:00,
2013-07-19 18:00:00,75.7,60.0,30.09,East,98,5.0,7.0,59,0.00,,,0.00,weatherlink.com 1.10,2013-07-19 17:00:00,
2013-07-19 18:15:00,76.3,61.0,30.09,NNE,24,3.0,6.0,59,0.00,,,0.00,weatherlink.com 1.10,2013-07-19 17:15:00,
2013-07-19 18:30:00,76.0,61.0,30.09,ESE,113,2.0,6.0,60,0.00,,,0.00,weatherlink.com 1.10,2013-07-19 17:30:00,
2013-07-19 18:45:00,75.5,61.0,30.09,ESE,114,2.0,7.0,62,0.00,,,0.00,weatherlink.com 1.10,2013-07-19 17:45:00,
2013-07-19 19:00:00,75.3,62.0,30.09,SE,129,5.0,5.0,63,0.00,,,0.00,weatherlink.com 1.10,2013-07-19 18:00:00,
2013-07-19 19:15:00,75.1,62.0,30.09,ESE,111,4.0,6.0,64,0.00,,,0.00,weatherlink.com 1.10,2013-07-19 18:15:00,
2013-07-19 19:30:00,74.8,62.0,30.09,East,79,3.0,6.0,65,0.00,,,0.00,weatherlink.com 1.10,2013-07-19 18:30:00,
2013-07-19 19:45:00,74.8,62.0,30.09,ENE,73,3.0,5.0,65,0.00,,,0.00,weatherlink.com 1.10,2013-07-19 18:45:00,
2013-07-19 20:00:00,74.7,62.0,30.09,North,6,2.0,5.0,65,0.00,,,0.00,weatherlink.com 1.10,2013-07-19 19:00:00,
2013-07-19 20:15:00,73.7,62.0,30.08,ENE,69,3.0,5.0,67,0.00,,,0.00,weatherlink.com 1.10,2013-07-19 19:15:00,
2013-07-19 20:30:00,72.8,62.0,30.08,East,82,4.0,6.0,69,0.00,,,0.00,weatherlink.com 1.10,2013-07-19 19:30:00,
2013-07-19 20:45:00,72.0,62.0,30.09,East,84,1.0,5.0,71,0.00,,,0.00,weatherlink.com 1.10,2013-07-19 19:45:00,
2013-07-19 21:01:00,71.2,63.0,30.08,ESE,103,3.0,4.0,74,0.00,,,0.00,weatherlink.com 1.10,2013-07-19 20:01:00,
2013-07-19 21:16:00,71.0,63.0,30.09,ENE,77,3.0,3.0,75,0.00,,,0.00,weatherlink.com 1.10,2013-07-19 20:16:00,
2013-07-19 21:31:00,70.7,63.0,30.09,ESE,108,1.0,3.0,76,0.00,,,0.00,weatherlink.com 1.10,2013-07-19 20:31:00,
2013-07-19 21:46:00,70.2,63.0,30.09,SE,124,0.0,2.0,77,0.00,,,0.00,weatherlink.com 1.10,2013-07-19 20:46:00,
2013-07-19 22:01:00,69.8,63.0,30.09,SE,124,1.0,1.0,78,0.00,,,0.00,weatherlink.com 1.10,2013-07-19 21:01:00,
2013-07-19 22:16:00,69.4,63.0,30.09,East,98,1.0,2.0,79,0.00,,,0.00,weatherlink.com 1.10,2013-07-19 21:16:00,
2013-07-19 22:31:00,68.8,63.0,30.09,ESE,106,1.0,2.0,81,0.00,,,0.00,weatherlink.com 1.10,2013-07-19 21:31:00,
2013-07-19 22:46:00,68.5,63.0,30.09,ESE,105,1.0,2.0,82,0.00,,,0.00,weatherlink.com 1.10,2013-07-19 21:46:00,
2013-07-19 23:01:00,68.1,62.0,30.09,ESE,119,2.0,2.0,82,0.00,,,0.00,weatherlink.com 1.10,2013-07-19 22:01:00,
2013-07-19 23:16:00,67.7,62.0,30.09,East,98,1.0,3.0,83,0.00,,,0.00,weatherlink.com 1.10,2013-07-19 22:16:00,
2013-07-19 23:31:00,67.4,62.0,30.09,ESE,119,0.0,2.0,84,0.00,,,0.00,weatherlink.com 1.10,2013-07-19 22:31:00,
2013-07-19 23:46:00,67.2,62.0,30.09,ESE,113,1.0,2.0,84,0.00,,,0.00,weatherlink.com 1.10,2013-07-19 22:46:00,